Aswan, Egypt

10:54 AM EET on April 26, 2017 (GMT +0200)
Aswan

Weather History for HESN - February, 2013

Change the Weather History Date:

Wednesday, February 6, 2013

  Actual Average Record
Temperature  
Mean Temperature 67 °F -  
Max Temperature 74 °F 76 °F 93 °F (2011)
Min Temperature 59 °F 53 °F 41 °F (2000)
Cooling Degree Days 2    
Growing Degree Days 17 (Base 50)    
Moisture  
Dew Point 36 °F    
Average Humidity 32    
Maximum Humidity 52    
Minimum Humidity 10    
Precipitation  
Precipitation 0.00 in 0.00 in - ()
Sea Level Pressure  
Sea Level Pressure 30.02 in    
Wind  
Wind Speed 8 mph ()    
Max Wind Speed 21 mph    
Max Gust Speed -    
Visibility 3.2 miles    
Events      
Averages and records for this station are not official NWS values.
T = Trace of Precipitation, MM = Missing Value Source: Averaged Metar Reports

Daily Weather History Graph

Daily Weather History Graph

Search for Another Location

Airport or City:

Trip Planner

Search our weather history database for the weather conditions in past years. The results will help you decide how hot, cold, wet, or windy it might be!

Date:

Astronomy

Feb. 06, 2013 Rise Set
Actual Time 6:27 AM EET 5:38 PM EET
Civil Twilight 6:04 AM EET 6:02 PM EET
Nautical Twilight 5:37 AM EET 6:29 PM EET
Astronomical Twilight 5:10 AM EET 6:55 PM EET
Moon 2:38 AM EET (2/6) 1:47 PM EET (2/6)
Length of Visible Light 11h 57m
Length of Day
11h 10m
Waning Crescent, 20% of the Moon is Illuminated
Feb 6
Waning Crescent
Feb 10
New
Feb 17
First Quarter
Feb 25
Full
Mar 4
Last Quarter

Hourly Weather History & Observations

Time (EET) Temp. Dew Point Humidity Pressure Visibility Wind Dir Wind Speed Gust Speed Precip Events Conditions
12:00 AM 71.6 °F 50.0 °F 46% 29.89 in - SSW 3.5 mph - N/A   Clear
1:00 AM 69.8 °F 48.2 °F 46% 29.89 in - Calm Calm - N/A   Clear
2:00 AM 69 °F 49 °F 37% 29.88 in 6 mi Calm Calm - -  
2:00 AM 68.0 °F 48.2 °F 49% 29.89 in - Calm Calm - N/A   Clear
3:00 AM 68.0 °F 48.2 °F 49% 29.89 in - SE 4.6 mph - N/A   Clear
4:00 AM 71.6 °F 35.6 °F 27% 29.92 in 2.5 mi NW 15.0 mph - N/A   Sand
5:00 AM 66.2 °F 35.6 °F 32% 29.95 in 1.6 mi NW 20.7 mph - N/A   Sand
6:00 AM 64.4 °F 42.8 °F 45% 29.98 in 1.6 mi NNW 17.3 mph - N/A   Sand
7:00 AM 64.4 °F 46.4 °F 52% 30.01 in 1.6 mi NW 17.3 mph - N/A   Sand
8:00 AM 64 °F 44 °F 36% 30.06 in 2 mi NW 13.8 mph - -   Blowing Sand
8:00 AM 64.4 °F 44.6 °F 49% 30.06 in 1.6 mi NW 13.8 mph - N/A   Sand
9:00 AM 62.6 °F 41.0 °F 45% 30.09 in 1.6 mi North 12.7 mph - N/A   Sand
10:00 AM 64.4 °F 39.2 °F 40% 30.09 in 1.9 mi North 13.8 mph - N/A   Sand
11:00 AM 68.0 °F 37.4 °F 33% 30.09 in 1.9 mi NNW 12.7 mph - N/A   Sand
12:00 PM 69.8 °F 33.8 °F 27% 30.06 in 2.5 mi WNW 12.7 mph - N/A   Sand
1:00 PM 71.6 °F 30.2 °F 22% 30.06 in 3.7 mi NW 13.8 mph - N/A   Unknown
2:00 PM 73 °F 28 °F 10% 30.02 in 4 mi NW 12.7 mph - -   Blowing Sand
2:00 PM 73.4 °F 28.4 °F 19% 30.04 in 3.7 mi NW 12.7 mph - N/A   Unknown
3:00 PM 73.4 °F 26.6 °F 18% 30.01 in 3.7 mi WNW 12.7 mph - N/A   Unknown
4:00 PM 73.4 °F 26.6 °F 18% 30.01 in 5.0 mi WNW 13.8 mph - N/A   Unknown
5:00 PM 73.4 °F 28.4 °F 19% 30.01 in 5.0 mi WNW 13.8 mph - N/A   Unknown
6:00 PM 73.4 °F 28.4 °F 19% 30.01 in 5.0 mi WNW 13.8 mph - N/A   Unknown
7:00 PM 68.0 °F 28.4 °F 23% 30.06 in - WNW 6.9 mph - N/A   Clear
8:00 PM 65 °F 28 °F 14% 30.09 in 6 mi NW 4.6 mph - -  
8:00 PM 64.4 °F 28.4 °F 26% 30.09 in - NW 4.6 mph - N/A   Clear
9:00 PM 60.8 °F 28.4 °F 29% 30.09 in - North 3.5 mph - N/A   Clear
10:00 PM 60.8 °F 30.2 °F 31% 30.09 in - Calm Calm - N/A   Clear
11:00 PM 59.0 °F 32.0 °F 36% 30.12 in - North 3.5 mph - N/A   Clear